Location: Blamécourt
(49.1585°N, 1.7999°E)
Time: 14:48:17
(UTC+00:00)

Daily predictions for brighter satellites

Satellite Brightness Start Highest point End
(mag) Time Altitude Azimuth Time Altitude Azimuth Time Altitude Azimuth
Atlas Centaur 2 4.3 20:31:33 10° SW 20:36:56 19° S 20:42:19 10° SE
SL-16 R/B 2.8 20:32:19 10° NNW 20:37:51 49° NE 20:43:20 10° SE
Cosmos 1763 Rocket 3.7 20:34:03 10° NNW 20:39:20 75° WSW 20:44:30 10° SSE
ERS-1 Rocket 3.1 20:34:25 10° SSE 20:39:23 68° ENE 20:44:24 10° N
Cosmos 2369 4.1 20:33:49 10° NNW 20:39:29 63° WSW 20:45:08 10° SSE
RESURS DK-1 3.7 20:37:36 10° NNW 20:41:12 29° NE 20:44:47 10° ESE
Resurs 01 Rocket 3.8 20:37:46 10° SSW 20:41:24 25° W 20:45:02 10° NW
Cosmos 2082 Rocket 2.3 20:37:37 10° SSW 20:43:21 90° E 20:49:06 10° NNE
Spot 2 Rocket 3.8 20:39:03 10° SSE 20:43:59 57° ENE 20:48:59 10° N
Cosmos 1933 Rocket 3.6 20:41:21 10° N 20:45:49 82° E 20:50:15 10° SSE
Cosmos 1470 2.6 20:42:43 10° N 20:46:26 86° W 20:50:08 10° S
SPOT 5 3.0 20:44:23 10° S 20:48:39 65° WSW 20:53:02 10° NNW
Cosmos 1300 4.1 20:47:01 10° NNE 20:49:51 21° ENE 20:52:39 10° ESE
Cosmos 1908 3.0 20:50:02 10° N 20:53:38 79° E 20:57:14 10° SSE
Cosmos 1346 Rocket 4.2 20:55:09 10° NNE 20:58:23 24° ENE 21:01:34 10° SE
Cosmos 1674 3.4 20:57:03 10° SSW 21:00:25 49° WNW 21:03:48 10° N
ATLAS 2AS CENTAUR R/B 3.4 20:53:48 10° NW 21:00:30 49° NE 21:06:57 10° ESE
IRS-1C Rocket 4.5 20:55:32 10° S 21:00:44 65° WSW 21:05:59 10° NNW
Meteor 1-22 Rocket 4.4 20:57:03 10° N 21:02:38 66° ENE 21:08:23 10° SSE
Cosmos 468 Rocket 4.3 21:01:16 10° NNW 21:06:28 66° WSW 21:11:35 10° S
KORONAS-FOTON 4.4 21:03:22 10° SSW 21:07:02 56° WNW 21:10:44 10° N
Ariane Rocket 3.0 21:03:24 10° SSE 21:08:29 85° ENE 21:13:37 10° NNW
Cosmos 1758 4.0 21:05:59 10° N 21:09:40 39° ENE 21:12:54 13° SE
Cosmos 1842 4.1 21:07:01 10° SSW 21:10:33 47° WNW 21:14:06 10° N
Cosmos 1356 Rocket 4.5 21:09:22 12° SSE 21:12:39 29° E 21:16:19 10° NNE
COSMOS 2406 3.7 21:10:54 10° SW 21:16:37 66° WNW 21:22:22 10° NNE
SPOT 3 Rocket 3.6 21:12:18 10° SSE 21:17:27 88° WSW 21:22:39 10° NNW
Meteor 1-13 Rocket 4.3 21:13:30 10° S 21:19:19 89° E 21:25:03 10° NNE
Cosmos 1707 Rocket 4.3 21:16:10 12° SSE 21:19:46 36° E 21:23:51 10° NNE
SL-27 R/B 3.8 21:19:33 14° ESE 21:20:11 15° E 21:21:50 10° ENE
ARIANE 5 R/B 4.3 21:17:45 10° ESE 21:21:00 21° ENE 21:24:17 10° NNE
Cosmos 1980 Rocket 4.0 21:17:30 10° NW 21:21:57 24° WSW 21:26:22 10° SSW
Cosmos 2322 Rocket 2.4 21:16:51 10° NNW 21:22:31 66° ENE 21:27:28 14° SE
S3M 4.1 21:16:18 10° N 21:22:45 88° WSW 21:29:04 10° S
Cosmos 1655 Rocket 4.2 21:23:17 10° S 21:29:35 64° E 21:35:55 10° NNE
SJ 16-02 2.8 21:28:53 15° SE 21:31:01 21° E 21:34:16 10° NE
Cosmos 2278 4.1 21:25:45 10° NW 21:31:23 60° WSW 21:36:25 13° S
Landsat 5 3.6 21:27:39 10° NNE 21:31:33 52° E 21:35:02 13° S
Landsat 4 4.3 21:32:54 11° S 21:36:01 45° W 21:39:21 10° NNW
Cosmos 1741 Rocket 4.3 21:31:52 10° S 21:36:55 49° ESE 21:42:01 10° NNE
Tiangong 0.1 21:35:44 10° SW 21:37:07 12° SSW 21:37:28 12° SSW
USA 281 3.7 21:32:45 12° SE 21:38:39 53° NE 21:45:01 10° NNW
Cosmos 2266 Rocket 4.2 21:32:59 10° SSW 21:39:18 81° W 21:45:45 10° N
Cosmos 1400 Rocket 2.8 21:35:36 10° SSW 21:39:30 83° WNW 21:43:22 10° N
COSMOS 2428 4.4 21:35:39 10° NNW 21:40:17 25° NE 21:44:56 10° E
Cosmos 1733 Rocket 3.1 21:36:35 10° N 21:41:00 69° E 21:44:16 18° SSE
MetOp-A 4.1 21:37:25 15° SSE 21:41:43 83° ENE 21:47:01 10° NNW
Okean 3 4.1 21:39:26 18° SSE 21:42:06 38° E 21:45:59 10° NNE
Terra 2.9 21:38:20 10° SSW 21:42:45 39° W 21:47:11 10° NNW
Cosmos 968 Rocket 3.9 21:41:01 15° S 21:44:59 42° ESE 21:49:51 10° NE
Cosmos 1814 Rocket 4.5 21:40:46 10° NNW 21:45:58 53° ENE 21:50:00 17° SE
SL-4 R/B 2.4 21:42:56 10° W 21:46:47 63° N 21:50:55 10° ENE
Cosmos 2228 Rocket 3.1 21:44:42 13° S 21:48:46 79° E 21:53:22 10° NNE
Cosmos 2219 Rocket 2.8 21:45:41 10° NNW 21:51:11 48° NE 21:55:47 15° SE
Cosmos 1315 Rocket 3.9 21:51:04 19° SE 21:52:57 28° E 21:56:22 10° NNE
ATLAS CENTAUR R/B 1.5 21:52:13 20° S 21:54:10 37° ESE 21:57:30 10° NE
Meteor 2-10 Rocket 4.0 21:50:24 10° NNW 21:55:59 64° W 22:00:34 14° S
SeaSat 1 4.3 21:52:45 10° SSW 21:56:31 22° WSW 22:00:17 10° NW
Cosmos 1953 3.1 21:55:12 10° N 21:58:47 36° ENE 22:00:51 21° SE
Cosmos 1455 3.0 21:58:48 10° N 22:02:01 32° ENE 22:03:41 21° ESE
H-2A R/B 3.8 21:59:30 15° ESE 22:02:17 30° ENE 22:06:02 10° N
Cosmos 1242 Rocket 4.0 22:04:20 14° E 22:04:28 14° E 22:06:04 10° NE
USA 234 3.6 21:59:53 10° NE 22:06:23 69° NNW 22:12:52 10° WSW
Okean 1-7 3.5 22:04:58 22° SSE 22:07:21 45° E 22:11:30 10° NNE
BREEZE-M DEB (TANK) 2.7 22:05:58 10° W 22:08:01 38° SSW 22:09:05 27° SSE
CZ-2C R/B 4.0 22:04:54 10° NNE 22:09:10 46° E 22:11:36 23° SSE
Cosmos 2360 Rocket 2.3 22:08:39 10° NNW 22:14:19 70° WSW 22:18:06 21° SSE
ALOS 2 4.2 22:11:53 14° ESE 22:14:45 25° ENE 22:18:21 10° N
RESURS DK-1 3.4 22:15:15 10° NW 22:18:59 35° WSW 22:21:10 20° SSW
Cosmos 2333 Rocket 2.3 22:13:38 10° NNW 22:19:22 70° WSW 22:23:08 22° SSE
SL-14 R/B 4.2 22:17:25 11° SSW 22:20:53 42° WNW 22:24:31 10° N
SL-16 R/B 3.4 22:16:46 10° NW 22:21:45 32° WSW 22:25:47 14° SSW
Cosmos 1300 4.1 22:21:28 10° NNW 22:24:35 28° W 22:26:54 15° SW
Atlas Centaur 2 4.2 22:19:43 10° SW 22:24:48 18° SSW 22:25:49 17° S
EXPRESS MD2 1.8 22:24:24 10° W 22:26:42 79° N 22:27:54 23° ENE
OPS 8737 4.0 22:24:41 10° NW 22:27:38 79° NE 22:28:45 35° SE
SL-08 R/B 4.5 22:25:46 21° S 22:29:56 68° E 22:36:00 10° NNE
BREEZE-M DEB (TANK) 3.9 22:14:01 10° WSW 22:31:32 90° NW 22:35:48 10° E
Aureole 3 3.8 22:30:50 19° SSW 22:33:27 60° WNW 22:38:04 10° N
Cosmos 1346 Rocket 4.2 22:30:49 10° NNW 22:34:14 30° W 22:36:35 16° SW
Cosmos 1703 Rocket 3.8 22:32:44 27° SSE 22:34:58 58° E 22:39:22 10° NNE
Cosmos 1833 4.1 22:30:08 13° SSW 22:35:12 84° ESE 22:40:52 10° NNE
DNEPR-1 R/B 4.4 22:29:23 10° NW 22:36:17 87° SW 22:39:56 23° SE
Cosmos 1862 Rocket 4.4 22:32:48 13° SSW 22:36:27 48° WNW 22:40:45 10° N
Meteor 1-4 Rocket 2.7 22:41:49 27° SW 22:43:07 50° WNW 22:46:03 10° N
Cosmos 839 Rocket 4.2 22:36:54 10° NW 22:43:52 69° WSW 22:47:42 24° SSE
Cosmos 1932 4.5 22:38:31 14° SSW 22:44:00 66° ESE 22:50:14 10° NE
Cosmos 2322 3.9 22:40:08 10° NNW 22:45:50 70° ENE 22:49:29 23° SE
Cosmos 2237 Rocket 3.7 22:41:47 10° NNW 22:46:47 30° NE 22:51:43 10° ESE
BlueWalker 3 3.9 22:50:03 14° ESE 22:50:03 14° ESE 22:51:01 10° E
ATLAS 2AS CENTAUR R/B 3.0 22:44:56 10° NW 22:51:29 50° WSW 22:55:16 24° S
SL-27 R/B 3.9 22:50:57 13° WSW 22:52:55 26° WNW 22:55:21 10° N
ARIANE 5 R/B 3.1 22:54:58 26° SSW 22:57:05 49° W 23:01:19 10° NNW
SL-24 R/B - RUBIN 2 4.5 22:51:02 10° NW 22:57:41 75° SW 23:01:28 25° SSE
PSLV R/B 4.0 22:56:45 10° N 23:00:45 70° WNW 23:02:50 27° SSW
Okean 2 4.0 23:00:22 22° SW 23:02:42 48° WNW 23:06:37 10° N
Cosmos 2322 Rocket 3.8 23:01:41 10° NW 23:06:04 23° WSW 23:09:15 15° SW
Cosmos 1570 Rocket 4.0 23:01:09 10° NNW 23:06:32 83° WSW 23:09:22 29° SSE
Cosmos 1703 4.2 23:06:48 27° ESE 23:07:42 30° E 23:10:58 10° NNE
SJ 16-02 2.2 23:05:36 14° SW 23:09:03 46° WNW 23:13:14 10° NNE
Cosmos 1745 Rocket 4.0 23:05:11 25° S 23:09:06 82° E 23:15:30 10° N
Cosmos 1241 Rocket 4.4 23:04:14 12° SW 23:10:06 88° NW 23:16:24 10° NE
COSMOS 2455 3.6 23:08:59 26° SSE 23:11:24 36° ESE 23:16:50 10° NE
Cosmos 2297 Rocket 3.4 23:13:10 22° SE 23:15:10 27° ESE 23:19:49 10° NE
Nadezhda 1 Rocket 4.1 23:11:44 10° NNW 23:18:02 70° W 23:21:42 26° S
GP-B 4.0 23:15:30 10° NNW 23:19:39 42° W 23:22:05 22° SW
Cosmos 1408 1.9 23:22:14 65° SSE 23:22:35 78° E 23:25:34 10° NNE
USA 281 4.0 23:19:37 21° SSW 23:23:20 38° WSW 23:29:25 10° NW
COSMOS 2428 2.7 23:19:28 10° NNW 23:25:10 77° WSW 23:28:12 29° SSE
SL-4 R/B 2.2 23:21:48 10° WNW 23:25:50 73° NNE 23:30:07 10° E
Cosmos 1315 Rocket 4.5 23:26:19 14° WSW 23:29:02 27° WNW 23:32:31 10° N
GEOS 3 Rocket 4.3 23:25:05 10° NE 23:29:50 36° ESE 23:31:28 29° SSE
ATLAS CENTAUR R/B 3.1 23:28:49 10° W 23:31:53 27° NW 23:35:04 10° NNE
Cosmos 1782 Rocket 4.1 23:28:21 10° NNW 23:32:32 48° W 23:34:15 30° SSW
CZ-3 Stage 3 4.5 23:12:53 10° W 23:33:17 27° SW 23:37:06 22° S
Cosmos 1953 4.2 23:31:34 10° NW 23:34:21 19° W 23:35:58 15° WSW
Cosmos 2219 Rocket 3.2 23:29:57 10° NW 23:34:58 33° WSW 23:37:28 23° SSW
Cosmos 1455 4.0 23:33:46 10° NW 23:36:13 18° W 23:37:24 15° WSW
Cosmos 1242 Rocket 3.7 23:35:32 21° W 23:36:18 24° WNW 23:38:39 10° NNW
H-2A R/B 3.6 23:35:29 25° SW 23:37:08 33° W 23:41:03 10° NNW
Cosmos 2208 Rocket 4.1 23:32:06 10° NNW 23:37:15 62° WSW 23:39:34 32° S
Cosmos 1892 4.1 23:38:13 21° ESE 23:39:00 23° E 23:41:49 10° NE
Cosmos 158 Rocket 4.1 23:34:27 10° NNW 23:39:44 63° WSW 23:42:07 32° S
Cosmos 371 Rocket 3.5 23:38:59 34° S 23:40:53 57° ESE 23:45:37 10° NNE
BREEZE-M DEB (TANK) 4.0 23:38:54 10° W 23:42:28 88° N 23:54:35 10° E
NOSS 8 (E) 4.4 23:45:42 45° SSW 23:46:38 69° SE 23:49:46 10° NE
Cosmos 773 Rocket 3.9 23:41:57 10° NNW 23:47:08 85° ENE 23:49:51 29° SSE
Cosmos 2151 Rocket 4.0 23:43:42 10° N 23:48:03 54° ENE 23:50:03 29° SE
USA 234 4.4 23:42:46 10° ENE 23:48:56 46° N 23:55:06 10° WNW
ALOS 2 3.3 23:49:16 29° SW 23:50:53 41° W 23:55:04 10° NNW
GENESIS II 4.1 23:49:40 33° SW 23:51:12 75° NW 23:54:50 10° NE
Cosmos 2263 Rocket 4.4 23:52:02 10° ESE 23:53:08 11° E 23:54:14 10° E
Cosmos 1503 Rocket 4.2 23:51:55 31° S 23:54:20 59° ESE 23:59:33 10° NNE
Okean 2 Rocket 3.4 23:50:58 10° N 23:55:24 59° ENE 23:57:29 29° SE
Cosmos 2360 Rocket 4.4 23:55:21 10° WNW 23:57:14 12° W 23:59:06 10° WSW
